This is the latest recevied weather packets stored in our database for station/object KN6DHD. If no packets are shown the sender has not sent any weather packets the latest 10 day(s).
| Time | Temp. | Humidity | Pressure | Rain* | Wind** | Luminosity | Snow |
|---|---|---|---|---|---|---|---|
| 1777861160 | 17.78° C | 63% | 1012.5 hPa | 0 mm | - | 35 W/m² | - |
| 1777860857 | 18.33° C | 63% | 1012.4 hPa | 0 mm | - | 40 W/m² | - |
| 1777860555 | 18.33° C | 63% | 1012.4 hPa | 0 mm | - | 42 W/m² | - |
| 1777860251 | 18.33° C | 63% | 1012.4 hPa | 0 mm | - | 43 W/m² | - |
| 1777859948 | 18.33° C | 62% | 1012.4 hPa | 0 mm | - | 53 W/m² | - |
| 1777859644 | 18.33° C | 61% | 1012.3 hPa | 0 mm | - | 54 W/m² | - |
| 1777859340 | 18.33° C | 61% | 1012.3 hPa | 0 mm | - | 49 W/m² | - |
| 1777859036 | 18.33° C | 62% | 1012.1 hPa | 0 mm | - | 44 W/m² | - |
| 1777858733 | 18.89° C | 61% | 1012.1 hPa | 0 mm | - | 46 W/m² | - |
| 1777858431 | 18.89° C | 60% | 1012.1 hPa | 0 mm | - | 52 W/m² | - |
| 1777858128 | 18.89° C | 61% | 1012.3 hPa | 0 mm | - | 61 W/m² | - |
| 1777857826 | 18.89° C | 61% | 1012.4 hPa | 0 mm | - | 66 W/m² | - |
| 1777857523 | 18.89° C | 62% | 1012.3 hPa | 0 mm | - | 64 W/m² | - |
| 1777857219 | 18.89° C | 62% | 1012.4 hPa | 0 mm | - | 58 W/m² | - |
| 1777856915 | 19.44° C | 61% | 1012.2 hPa | 0 mm | - | 58 W/m² | - |
| 1777856611 | 18.89° C | 61% | 1012.2 hPa | 0 mm | - | 70 W/m² | - |
| 1777856308 | 18.89° C | 61% | 1012 hPa | 0 mm | - | 74 W/m² | - |
| 1777856005 | 19.44° C | 60% | 1012.2 hPa | 0 mm | - | 73 W/m² | - |
| 1777855702 | 20° C | 60% | 1012.1 hPa | 0 mm | - | 83 W/m² | - |
| 1777855400 | 20° C | 60% | 1012 hPa | 0 mm | - | 232 W/m² | - |
| 1777855096 | 19.44° C | 61% | 1012 hPa | 0 mm | - | 111 W/m² | - |
| 1777854793 | 19.44° C | 62% | 1012.1 hPa | 0 mm | - | 76 W/m² | - |
| 1777854490 | 18.89° C | 62% | 1012.3 hPa | 0 mm | - | 82 W/m² | - |
| 1777854187 | 19.44° C | 61% | 1012.2 hPa | 0 mm | - | 104 W/m² | - |
| 1777853884 | 19.44° C | 61% | 1012.1 hPa | 0 mm | - | 129 W/m² | - |
* Rain latest hour (hover to see other rain measurements)
** Current wind speed in m/s (hover to see current wind gust speed)